Location: Castifao
(42.5040°N, 9.1124°E)
Time: 18:01:19
(UTC+00:00)

SL-16 R/B - Pass Details

Date: 23 January 2020
Orbit: 841 x 848 km, 71.0° (Epoch: 22 February)

Event Time Altitude Azimuth Distance (km) Brightness Sun altitude
Rises 19:21:01 0° 323° (NW) 3,414 5.8 -32.3°
Reaches altitude 10° 19:23:52 10° 311° (NW) 2,473 5.2 -32.8°
Maximum altitude 19:28:21 25° 258° (WSW) 1,654 4.2 -33.6°
Drops below altitude 10° 19:32:49 10° 206° (SSW) 2,456 4.8 -34.4°
Sets 19:35:39 0° 193° (SSW) 3,385 5.4 -35.0°
